Location: Brede
(50.9167°N, 0.6000°E)
Time: 18:45:36
(UTC+00:00)

Cosmos 1092 Rocket - Pass Details

Date: 08 August 2020
Orbit: 953 x 996 km, 82.9° (Epoch: 23 September)

Event Time Altitude Azimuth Distance (km) Brightness Sun altitude
Rises 01:01:15 0° 349° (N) 3,700 8.1 -21.8°
Reaches altitude 10° 01:03:47 10° 350° (N) 2,742 7.3 -21.7°
Maximum altitude 01:10:05 89° 259° (WSW) 979 3.9 -21.5°
Enters shadow 01:12:45 37° 173° (S) 1,459 4.4 -21.3°
